CW3081 Weather Reports


time (UTC)temp
C
wind
direction
speed
KPH
gust
KPH
rain 1hr
cm
rain 24hr
cm
rain mn
cm
humidity
%
barometer
mb
20260508181555 22 184 1.6 3.2 0.00 0.00 0.00 39 1014.1
20260508180050 21 167 0.0 4.8 0.00 0.00 0.00 42 1014.5
20260508174547 21 181 0.0 3.2 0.00 0.00 0.00 44 1014.6
20260508173050 21 250 1.6 3.2 0.00 0.00 0.00 40 1015.1
20260508171545 20 146 1.6 3.2 0.00 0.00 0.00 41 1015.2
20260508170043 20 252 0.0 3.2 0.00 0.00 0.00 43 1015.6
20260508164555 19 154 0.0 4.8 0.00 0.00 0.00 48 1015.7
20260508163038 19 248 0.0 1.6 0.00 0.00 0.00 47 1015.9
20260508161551 18 203 0.0 3.2 0.00 0.00 0.00 47 1016.2
20260508160041 18 255 0.0 3.2 0.00 0.00 0.00 49 1016.4
20260508154550 17 0 0.0 3.2 0.00 0.00 0.00 51 1016.7
20260508153048 17 220 0.0 3.2 0.00 0.00 0.00 53 1016.9
20260508151546 17 194 0.0 3.2 0.00 0.00 0.00 60 1016.8
20260508150058 16 146 0.0 4.8 0.00 0.00 0.00 56 1016.9
20260508144603 16 148 1.6 4.8 0.00 0.00 0.00 59 1017.1
20260508143044 15 200 0.0 1.6 0.00 0.00 0.00 60 1017.3
20260508141551 15 5 0.0 1.6 0.00 0.00 0.00 67 1017.3
20260508140053 14 0 0.0 1.6 0.00 0.00 0.00 70 1017.4
20260508134553 13 354 0.0 0.0 0.00 0.00 0.00 72 1017.5
20260508133110 12 0 0.0 0.0 0.00 0.00 0.00 79 1017.5
20260508131550 12 0 0.0 0.0 0.00 0.00 0.00 87 1017.4
20260508130039 9 0 0.0 0.0 0.00 0.00 0.00 96 1017.5
20260508124549 6 0 0.0 0.0 0.00 0.00 0.00 95 1017.4
20260508123059 5 0 0.0 0.0 0.00 0.00 0.00 94 1017.2
20260508121546 5 0 0.0 0.0 0.00 0.00 0.00 94 1017.3
20260508120052 -17 0.0 0.0 0.00 0.00 0.00 1017.0
20260508114549 -17 0.0 0.0 0.00 0.00 0.00 1017.0
20260508113107 -17 0.0 0.0 0.00 0.00 0.00 1016.7
20260508111544 -17 0.0 0.0 0.00 0.00 0.00 1016.6
20260508110054 -17 0.0 0.0 0.00 0.00 0.00 1016.4
20260508104541 4 0 0.0 0.0 0.00 0.00 0.00 93 1016.3
20260508103057 4 0 0.0 0.0 0.00 0.00 0.00 93 1016.1
20260508101600 4 0 0.0 0.0 0.00 0.00 0.00 93 1016.0
20260508100042 4 0 0.0 0.0 0.00 0.00 0.00 93 1015.9
20260508094545 5 0 0.0 0.0 0.00 0.00 0.00 93 1015.9
20260508093043 5 0 0.0 0.0 0.00 0.00 0.00 93 1015.7
20260508091550 5 0 0.0 0.0 0.00 0.00 0.00 92 1015.7
20260508090059 5 0 0.0 0.0 0.00 0.00 0.00 92 1015.7
20260508084545 5 0 0.0 0.0 0.00 0.00 0.00 92 1015.5
20260508083040 5 0 0.0 0.0 0.00 0.00 0.00 92 1015.7
20260508081543 5 0 0.0 0.0 0.00 0.00 0.00 92 1015.7
20260508080044 5 0 0.0 0.0 0.00 0.00 0.00 92 1015.7
20260508074545 6 0 0.0 0.0 0.00 0.00 0.00 92 1016.0
20260508073056 6 0 0.0 0.0 0.00 0.00 0.00 92 1016.1
20260508071555 6 0 0.0 0.0 0.00 0.00 0.00 92 1016.1
20260508070046 6 0 0.0 0.0 0.00 0.00 0.00 92 1016.2
20260508064543 6 0 0.0 0.0 0.00 0.00 0.00 92 1016.2
20260508063044 6 0 0.0 0.0 0.00 0.00 0.00 92 1016.3
20260508061551 6 0 0.0 1.6 0.00 0.00 0.00 91 1016.2
20260508060048 6 0 0.0 0.0 0.00 0.00 0.00 91 1016.4
20260508054545 7 0 0.0 0.0 0.00 0.00 0.00 91 1016.3
20260508053109 7 0 0.0 0.0 0.00 0.00 0.00 91 1016.5
20260508051543 7 0 0.0 0.0 0.00 0.00 0.00 91 1016.5
20260508050044 7 0 0.0 0.0 0.00 0.00 0.00 90 1016.3
20260508044538 7 0 0.0 0.0 0.00 0.00 0.00 90 1016.3
20260508043046 7 0 0.0 0.0 0.00 0.00 0.00 89 1016.4
20260508041609 8 0 0.0 0.0 0.00 0.00 0.00 89 1016.5
20260508040120 8 0 0.0 0.0 0.00 0.00 0.00 89 1016.7
20260508034547 8 0 0.0 0.0 0.00 0.00 0.00 88 1016.6
20260508033038 8 0 0.0 0.0 0.00 0.00 0.00 88 1016.7
20260508031547 8 0 0.0 0.0 0.00 0.00 0.00 87 1016.4
20260508030046 9 0 0.0 0.0 0.00 0.00 0.00 87 1016.3
20260508024550 10 0 0.0 0.0 0.00 0.00 0.00 86 1016.1
20260508023039 10 0 0.0 0.0 0.00 0.00 0.00 85 1016.2
20260508021540 10 0 0.0 0.0 0.00 0.00 0.00 83 1016.1
20260508020046 11 0 0.0 0.0 0.00 0.00 0.00 81 1015.8
20260508014547 11 0 0.0 0.0 0.00 0.00 0.00 79 1016.0
20260508013044 12 0 0.0 0.0 0.00 0.00 0.00 75 1015.8
20260508011550 12 0 0.0 0.0 0.00 0.00 0.00 71 1015.6
20260508010039 13 0 0.0 0.0 0.00 0.00 0.00 67 1015.4
20260508004555 13 0 0.0 0.0 0.00 0.00 0.00 66 1015.2
20260508003040 15 0 0.0 0.0 0.00 0.00 0.00 63 1015.1
20260508001541 15 0 0.0 0.0 0.00 0.00 0.00 62 1014.9
20260508000047 15 0 0.0 0.0 0.00 0.00 0.00 60 1014.8
20260507234551 16 0 0.0 0.0 0.00 0.00 0.00 59 1014.8
20260507233057 16 0 0.0 0.0 0.00 0.00 0.00 60 1014.7
20260507231548 16 0 0.0 1.6 0.00 0.00 0.00 53 1014.5
20260507230043 16 0 0.0 1.6 0.00 0.00 0.00 53 1014.6
20260507224554 17 27 0.0 1.6 0.00 0.00 0.00 59 1014.6
20260507223047 17 0 0.0 1.6 0.00 0.00 0.00 51 1014.6
20260507221543 17 1 0.0 1.6 0.00 0.00 0.00 54 1014.6
20260507220050 17 0 0.0 3.2 0.00 0.00 0.00 49 1014.8
20260507214545 17 350 0.0 3.2 0.00 0.00 0.00 49 1014.9
20260507213058 17 305 0.0 4.8 0.00 0.00 0.00 50 1014.6
20260507211547 17 0 0.0 1.6 0.00 0.00 0.00 53 1014.5
20260507210049 17 0 1.6 4.8 0.00 0.00 0.00 49 1014.6
20260507204542 17 258 0.0 4.8 0.00 0.00 0.00 52 1014.5
20260507203046 17 348 0.0 4.8 0.00 0.00 0.00 47 1014.6
20260507201546 17 327 1.6 3.2 0.00 0.00 0.00 49 1014.7
20260507200047 17 339 0.0 6.4 0.00 0.00 0.00 50 1014.8
20260507194615 17 0 1.6 3.2 0.00 0.00 0.00 49 1014.6
20260507193048 17 273 1.6 4.8 0.00 0.00 0.00 55 1014.8
20260507191547 17 280 1.6 6.4 0.00 0.00 0.00 50 1015.1
20260507190051 17 268 0.0 3.2 0.00 0.00 0.00 50 1015.1
20260507184540 17 283 0.0 3.2 0.00 0.00 0.00 54 1015.2
20260507183048 17 0 1.6 4.8 0.00 0.00 0.00 50 1015.1